Previsão horária em Abodim

Hoje, 18 Maio, Terça-feira

Tempo Temperatura Precipitação Vento Pressão Humidade
00:00 +19°C° 0 mm 3 m/s 742 mmHg 47%
01:00 +19°C° 0 mm 4 m/s 742 mmHg 47%
02:00 +18°C° 0 mm 4 m/s 742 mmHg 47%
03:00 +18°C° 0 mm 4 m/s 742 mmHg 47%
04:00 +18°C° 0 mm 4 m/s 741 mmHg 50%
05:00 +18°C° 0 mm 4 m/s 741 mmHg 53%
06:00 +17°C° 0 mm 5 m/s 741 mmHg 56%
07:00 +27°C° 0 mm 7 m/s 741 mmHg 39%
08:00 +26°C° 0 mm 7 m/s 741 mmHg 42%
09:00 +24°C° 0 mm 6 m/s 741 mmHg 45%
10:00 +26°C° 0 mm 7 m/s 741 mmHg 42%
11:00 +28°C° 0 mm 7 m/s 741 mmHg 39%
12:00 +29°C° 0 mm 7 m/s 741 mmHg 36%
13:00 +30°C° 0 mm 7 m/s 741 mmHg 35%
14:00 +32°C° 0 mm 6 m/s 741 mmHg 34%
15:00 +32°C° 0 mm 6 m/s 740 mmHg 33%
16:00 +30°C° 0 mm 5 m/s 740 mmHg 38%
17:00 +29°C° 0 mm 4 m/s 740 mmHg 44%
18:00 +27°C° 0 mm 3 m/s 740 mmHg 49%
19:00 +26°C° 0 mm 4 m/s 740 mmHg 51%
20:00 +23°C° 0 mm 4 m/s 740 mmHg 52%
21:00 +21°C° 0 mm 5 m/s 740 mmHg 53%
22:00 +21°C° 0 mm 5 m/s 740 mmHg 50%
23:00 +21°C° 0 mm 5 m/s 740 mmHg 47%

Amanhã, 19 Maio, Quarta-feira

Tempo Temperatura Precipitação Vento Pressão Humidade
00:00 +21°C° 0 mm 5 m/s 740 mmHg 44%
01:00 +20°C° 0 mm 5 m/s 739 mmHg 47%
02:00 +20°C° 0 mm 5 m/s 739 mmHg 49%
03:00 +19°C° 0 mm 5 m/s 739 mmHg 52%
04:00 +19°C° 0 mm 5 m/s 739 mmHg 52%
05:00 +19°C° 0 mm 6 m/s 739 mmHg 53%
06:00 +19°C° 0 mm 6 m/s 739 mmHg 54%
07:00 +21°C° 0 mm 7 m/s 739 mmHg 53%
08:00 +22°C° 0 mm 7 m/s 739 mmHg 51%
09:00 +24°C° 0 mm 8 m/s 739 mmHg 50%
10:00 +26°C° 0 mm 8 m/s 739 mmHg 48%
11:00 +28°C° 0 mm 8 m/s 739 mmHg 45%
12:00 +29°C° 0 mm 8 m/s 739 mmHg 43%
13:00 +29°C° 0 mm 7 m/s 739 mmHg 43%
14:00 +29°C° 0 mm 7 m/s 739 mmHg 42%
15:00 +29°C° 0 mm 6 m/s 739 mmHg 42%
16:00 +28°C° 0 mm 5 m/s 739 mmHg 46%
17:00 +27°C° 0 mm 4 m/s 739 mmHg 51%
18:00 +25°C° 0 mm 3 m/s 739 mmHg 56%
19:00 +24°C° 0 mm 3 m/s 739 mmHg 57%
20:00 +23°C° 0 mm 2 m/s 739 mmHg 58%
21:00 +20°C° 0 mm 2 m/s 739 mmHg 60%
22:00 +20°C° 0.9 mm 3 m/s 739 mmHg 67%
23:00 +19°C° 0.9 mm 3 m/s 739 mmHg 74%

Depois de amanhã, 20 Maio, Quinta-feira

Tempo Temperatura Precipitação Vento Pressão Humidade
00:00 +18°C° 0.9 mm 4 m/s 739 mmHg 81%
01:00 +17°C° 1.2 mm 3 m/s 739 mmHg 85%
02:00 +17°C° 1.2 mm 3 m/s 739 mmHg 88%
03:00 +17°C° 1.2 mm 2 m/s 739 mmHg 91%
04:00 +17°C° 0 mm 2 m/s 740 mmHg 90%
05:00 +17°C° 0 mm 2 m/s 740 mmHg 89%
06:00 +17°C° 0 mm 2 m/s 740 mmHg 88%
07:00 +17°C° 0.2 mm 3 m/s 740 mmHg 87%
08:00 +17°C° 0.2 mm 3 m/s 740 mmHg 86%
09:00 +17°C° 0.2 mm 4 m/s 741 mmHg 84%
10:00 +17°C° 0.7 mm 4 m/s 741 mmHg 85%
11:00 +15°C° 0.7 mm 4 m/s 741 mmHg 86%
12:00 +14°C° 0.7 mm 4 m/s 741 mmHg 87%
13:00 +17°C° 0.6 mm 4 m/s 741 mmHg 79%
14:00 +17°C° 0.6 mm 5 m/s 741 mmHg 71%
15:00 +20°C° 0.6 mm 5 m/s 741 mmHg 62%
16:00 +20°C° 0.1 mm 5 m/s 741 mmHg 65%
17:00 +19°C° 0.1 mm 5 m/s 741 mmHg 68%
18:00 +19°C° 0.1 mm 5 m/s 741 mmHg 70%
19:00 +17°C° 0.1 mm 4 m/s 742 mmHg 75%
20:00 +16°C° 0.1 mm 3 m/s 742 mmHg 80%
21:00 +14°C° 0.1 mm 3 m/s 742 mmHg 85%
22:00 +13°C° 0 mm 3 m/s 742 mmHg 87%
23:00 +13°C° 0 mm 3 m/s 742 mmHg 89%

21 Maio, Sexta-feira

Tempo Temperatura Precipitação Vento Pressão Humidade
00:00 +12°C° 0 mm 3 m/s 742 mmHg 91%
01:00 +12°C° 0 mm 3 m/s 743 mmHg 92%
02:00 +12°C° 0 mm 3 m/s 743 mmHg 93%
03:00 +12°C° 0 mm 2 m/s 743 mmHg 94%
04:00 +12°C° 0 mm 3 m/s 744 mmHg 93%
05:00 +13°C° 0 mm 3 m/s 744 mmHg 91%
06:00 +13°C° 0 mm 3 m/s 744 mmHg 89%
07:00 +16°C° 0 mm 3 m/s 745 mmHg 82%
08:00 +17°C° 0 mm 3 m/s 745 mmHg 75%
09:00 +19°C° 0 mm 4 m/s 745 mmHg 69%
10:00 +20°C° 0 mm 4 m/s 745 mmHg 64%
11:00 +21°C° 0 mm 3 m/s 745 mmHg 60%
12:00 +22°C° 0 mm 3 m/s 746 mmHg 55%
13:00 +22°C° 0 mm 3 m/s 746 mmHg 53%
14:00 +24°C° 0 mm 3 m/s 746 mmHg 52%
15:00 +24°C° 0 mm 3 m/s 746 mmHg 50%
16:00 +24°C° 0 mm 2 m/s 746 mmHg 53%
17:00 +23°C° 0 mm 2 m/s 746 mmHg 57%
18:00 +23°C° 0 mm 2 m/s 746 mmHg 60%
19:00 +21°C° 0 mm 2 m/s 746 mmHg 64%
20:00 +19°C° 0 mm 2 m/s 746 mmHg 67%
21:00 +18°C° 0 mm 3 m/s 747 mmHg 70%
22:00 +17°C° 0 mm 3 m/s 747 mmHg 71%
23:00 +17°C° 0 mm 3 m/s 746 mmHg 72%

22 Maio, Sábado

Tempo Temperatura Precipitação Vento Pressão Humidade
00:00 +16°C° 0 mm 3 m/s 746 mmHg 73%
01:00 +16°C° 0 mm 3 m/s 747 mmHg 73%
02:00 +16°C° 0 mm 3 m/s 747 mmHg 72%
03:00 +16°C° 0 mm 3 m/s 747 mmHg 72%
04:00 +16°C° 0 mm 3 m/s 747 mmHg 73%
05:00 +17°C° 0 mm 3 m/s 747 mmHg 74%
06:00 +17°C° 0 mm 4 m/s 747 mmHg 75%
07:00 +19°C° 0 mm 4 m/s 747 mmHg 69%
08:00 +21°C° 0 mm 5 m/s 747 mmHg 63%
09:00 +22°C° 0 mm 6 m/s 747 mmHg 58%
10:00 +23°C° 0 mm 6 m/s 747 mmHg 54%
11:00 +24°C° 0 mm 6 m/s 747 mmHg 51%
12:00 +26°C° 0 mm 6 m/s 747 mmHg 47%
13:00 +27°C° 0 mm 6 m/s 747 mmHg 47%
14:00 +27°C° 0 mm 6 m/s 747 mmHg 46%
15:00 +28°C° 0 mm 6 m/s 746 mmHg 46%
16:00 +28°C° 0 mm 4 m/s 742 mmHg 49%
17:00 +27°C° 0 mm 3 m/s 742 mmHg 54%
18:00 +27°C° 0 mm 1 m/s 742 mmHg 59%
19:00 +25°C° 0 mm 2 m/s 742 mmHg 66%
20:00 +21°C° 0 mm 3 m/s 742 mmHg 73%
21:00 +19°C° 0 mm 3 m/s 742 mmHg 80%
22:00 +18°C° 0 mm 4 m/s 742 mmHg 83%
23:00 +17°C° 0 mm 4 m/s 742 mmHg 85%

23 Maio, Domingo

Tempo Temperatura Precipitação Vento Pressão Humidade
00:00 +15°C° 0 mm 4 m/s 742 mmHg 88%
01:00 +15°C° 0 mm 5 m/s 742 mmHg 88%
02:00 +15°C° 0 mm 5 m/s 742 mmHg 89%
03:00 +14°C° 0 mm 5 m/s 742 mmHg 89%
04:00 +15°C° 0 mm 5 m/s 743 mmHg 88%
05:00 +15°C° 0 mm 4 m/s 743 mmHg 88%
06:00 +15°C° 0 mm 4 m/s 743 mmHg 87%
07:00 +17°C° 0 mm 4 m/s 743 mmHg 83%
08:00 +19°C° 0 mm 4 m/s 743 mmHg 79%
09:00 +20°C° 0 mm 4 m/s 743 mmHg 76%
10:00 +21°C° 0 mm 4 m/s 743 mmHg 70%
11:00 +23°C° 0 mm 4 m/s 743 mmHg 65%
12:00 +25°C° 0 mm 4 m/s 743 mmHg 60%
13:00 +26°C° 0 mm 4 m/s 743 mmHg 56%
14:00 +27°C° 0 mm 4 m/s 743 mmHg 52%
15:00 +28°C° 0 mm 4 m/s 743 mmHg 48%
16:00 +27°C° 0 mm 4 m/s 743 mmHg 54%
17:00 +27°C° 0 mm 4 m/s 743 mmHg 60%
18:00 +26°C° 0 mm 4 m/s 743 mmHg 66%
19:00 +23°C° 0 mm 4 m/s 743 mmHg 71%
20:00 +22°C° 0 mm 5 m/s 743 mmHg 75%
21:00 +20°C° 0 mm 5 m/s 743 mmHg 80%
22:00 +20°C° 0 mm 5 m/s 743 mmHg 80%
23:00 +20°C° 0 mm 5 m/s 743 mmHg 79%
Mostrar mais

Necessitamos do seu Consentimento

A Meteoprog e os seus Fornecedores de Serviços podem armazenar e aceder a dados pessoais como cookies, identificadores do dispositivo ou outras tecnologias semelhantes existentes no seu dispositivo e processar estes dados para personalizar conteúdos e anúncios, assim como funcionalidades nas redes sociais e análise de tráfego.

  • Armazenar e/ou aceder a informações no seu dispositivo

    Os cookies, identificadores do dispositivo ou outras informações podem ser armazenados ou acedidos no seu dispositivo, para os fins acima indicados.

  • Anúncios e conteúdos personalizados, medição de anúncios e conteúdos, dados sobre o público-alvo e desenvolvimento de produtos

    Os anúncios e os conteúdos podem ser personalizados com base num perfil. Podem ser adicionados dados adicionais para uma maior personalização dos anúncios e dos conteúdos. A eficácia dos anúncios e dos conteúdos pode ser medida. Podem ser obtidas informações sobre o público que visualizou os anúncios e os conteúdos. Estes dados podem ser usados para desenvolver ou melhorar sistemas, softwares ou a experiência do utilizador.

Ao clicar em "Eu concordo”, permitirá o uso de cookies, identificadores do dispositivo e web beacons mencionados ou outras tecnologias semelhantes. As configurações do navegador do seu dispositivo podem ser alteradas.

Para certos fins, podem ser invocados interesses legítimos ao invés de consentimento. Pode ler mais informação sobre este assunto na nossa Política de Privacidade e Cookies.